COSMOS 1752

Satellite information

Favourite Embed

Satellite Type and Status

PAYLOADIN ORBIT

Key statistics

Satellite COSMOS 1752 at a glance.

Uptime

14339

Days in orbit

Revolutions

≈ 12.5

Per day

Orbit

LEO

Low Earth Orbit

Inclination

74.0

Latest

Satellite identification and parameters

Extended collection of information and parameters for COSMOS 1752.

Object identification

Identified? True

Debris? False

Object name: COSMOS 1752

International designator: 1986-042E

Object number (NORAD): 16762

Object ID (CCSDS): 16762

Country: COMMONWEALTH OF INDEPENDENT STATES (CIS)

Current information (Y/N): Y

RCS size: MEDIUM

Orbital parameters

Period: 115.476 minutes

Inclination: 74.0152 deg

SMA: 7855.155 km

Apoapsis: 1485.876 km

Periapsis: 1468.163 km

RAAN: 83.28 deg

Eccentricy: 0.00112746

Argument of periapsis: 77.2127 deg

Mean anomaly: 35.5118 deg

Mean motion: 12.47012092 rev/day

Mean motion (dot): 0.00000004 rev/day2

B* drag term: 0.00013472217 1/REarth

Two-line elements (TLE)

Creation date: Sept. 8, 2025, 3:16 a.m.

Reference frame: TEME

Reference center: EARTH

Epoch: Sept. 7, 2025, 10:30 p.m. UTC

TLE line 0: 0 COSMOS 1752

TLE line 1: 1 16762U 86042E 25250.93771392 .00000004 00000-0 13472-3 0 9991

TLE line 2: 2 16762 74.0152 83.2800 0011275 77.2127 35.5118 12.47012092787133

Live tracking on map

Real-time ground track for satellite COSMOS 1752.

In-orbit conjunctions

There are no conjunctions computed for COSMOS 1752, at the moment. Check back to stay up to date, as we update our databases every day.

Go to all conjunctions

Associated space launch

Military communications satellites

COSMOS 1752 was lifted into orbit during the mission ‘Kosmos-3M | Strela-1M 305-312’, on board a Kosmos-3M space rocket.

The launch took place on June 6, 1986, 3:57 a.m. from 132/1 (132L).

For more information about the launch, click the button.

Launch to space Kosmos-3M | Strela-1M 305-312
Kosmos-3M | Strela-1M 305-312

Agency: N/A

Status: Launch Successful

Launch date: June 6, 1986, 3:57 a.m. UTC

Rocket: Kosmos-3M

Launch pad: 132/1 (132L)

Location: Plesetsk Cosmodrome, Russian Federation

...

Latest news about this satellite

There are no fresh news available about this satellite. Check back as we update our databases every day.


Newsletter sign-up

Weekly statistics, charts and insights to help you stay on top of the space industry.